| time (UTC) | temp C | wind direction | speed KPH | gust KPH | rain 1hr cm | rain 24hr cm | rain mn cm | humidity % | barometer mb |
| 20260502234908 | 22 | 305 | 4.8 | 16.1 | 0.03 | 0.15 | 0.15 | 93 | 1010.7 |
| 20260502233421 | 22 | 195 | 6.4 | 16.1 | 0.03 | 0.15 | 0.15 | 93 | 1010.1 |
| 20260502232420 | 22 | 185 | 3.2 | 9.7 | 0.03 | 0.15 | 0.15 | 93 | 1010.4 |
| 20260502231418 | 22 | 177 | 3.2 | 9.7 | 0.03 | 0.15 | 0.15 | 93 | 1010.2 |
| 20260502230856 | 22 | 274 | 3.2 | 9.7 | 0.00 | 0.13 | 0.13 | 93 | 1010.9 |
| 20260502225416 | 22 | 204 | 3.2 | 9.7 | 0.03 | 0.13 | 0.13 | 93 | 1011.2 |
| 20260502224418 | 21 | 221 | 4.8 | 12.9 | 0.05 | 0.13 | 0.13 | 93 | 1010.9 |
| 20260502223418 | 21 | 160 | 4.8 | 11.3 | 0.08 | 0.13 | 0.13 | 93 | 1010.8 |
| 20260502222837 | 21 | 210 | 4.8 | 12.9 | 0.08 | 0.13 | 0.13 | 93 | 1011.1 |
| 20260502221407 | 21 | 231 | 3.2 | 11.3 | 0.10 | 0.13 | 0.13 | 93 | 1011.2 |
| 20260502220407 | 21 | 201 | 3.2 | 6.4 | 0.10 | 0.13 | 0.13 | 92 | 1011.4 |
| 20260502215402 | 21 | 278 | 3.2 | 11.3 | 0.08 | 0.10 | 0.10 | 91 | 1011.1 |
| 20260502214334 | 21 | 282 | 3.2 | 9.7 | 0.05 | 0.08 | 0.08 | 89 | 1011.2 |
| 20260502213325 | 22 | 267 | 6.4 | 14.5 | 0.03 | 0.05 | 0.05 | 88 | 1011.2 |
| 20260502212323 | 22 | 276 | 4.8 | 12.9 | 0.05 | 0.05 | 0.05 | 87 | 1010.8 |
| 20260502211326 | 22 | 280 | 4.8 | 12.9 | 0.03 | 0.03 | 0.03 | 87 | 1010.6 |
| 20260502210310 | 22 | 285 | 4.8 | 11.3 | 0.03 | 0.03 | 0.03 | 87 | 1010.7 |
| 20260502205305 | 22 | 271 | 3.2 | 9.7 | 0.03 | 0.03 | 0.03 | 88 | 1010.9 |
| 20260502204300 | 22 | 310 | 4.8 | 14.5 | 0.03 | 0.03 | 0.03 | 87 | 1010.8 |
| 20260502203259 | 22 | 322 | 9.7 | 30.6 | 0.03 | 0.03 | 0.03 | 82 | 1011.2 |
| 20260502202257 | 25 | 350 | 17.7 | 48.3 | 0.00 | 0.00 | 0.00 | 67 | 1011.6 |
| 20260502201257 | 28 | 291 | 9.7 | 22.5 | 0.00 | 0.00 | 0.00 | 69 | 1010.8 |
| 20260502200255 | 29 | 240 | 9.7 | 22.5 | 0.00 | 0.00 | 0.00 | 68 | 1010.4 |
| 20260502195256 | 29 | 352 | 12.9 | 29.0 | 0.00 | 0.00 | 0.00 | 68 | 1010.6 |
| 20260502194731 | 30 | 260 | 12.9 | 27.4 | 0.00 | 0.00 | 0.00 | 66 | 1010.6 |
| 20260502193249 | 30 | 231 | 12.9 | 27.4 | 0.00 | 0.00 | 0.00 | 67 | 1010.4 |
| 20260502192247 | 30 | 271 | 12.9 | 29.0 | 0.00 | 0.00 | 0.00 | 66 | 1010.4 |
| 20260502192213 | 30 | 265 | 11.3 | 27.4 | 0.00 | 0.00 | 0.00 | 65 | 1010.6 |
| 20260502190248 | 30 | 239 | 9.7 | 22.5 | 0.00 | 0.00 | 0.00 | 65 | 1010.6 |
| 20260502185246 | 30 | 239 | 12.9 | 29.0 | 0.00 | 0.00 | 0.00 | 63 | 1010.5 |
| 20260502184242 | 30 | 235 | 12.9 | 25.7 | 0.00 | 0.00 | 0.00 | 62 | 1010.7 |
| 20260502183242 | 30 | 231 | 16.1 | 29.0 | 0.00 | 0.00 | 0.00 | 61 | 1010.8 |
| 20260502182238 | 31 | 259 | 14.5 | 29.0 | 0.00 | 0.00 | 0.00 | 60 | 1010.7 |
| 20260502181237 | 31 | 225 | 14.5 | 37.0 | 0.00 | 0.00 | 0.00 | 60 | 1010.7 |
| 20260502180720 | 31 | 236 | 17.7 | 33.8 | 0.00 | 0.00 | 0.00 | 59 | 1010.6 |
| 20260502170229 | 31 | 249 | 12.9 | 25.7 | 0.00 | 0.00 | 0.00 | 62 | 1010.8 |
| 20260502164227 | 31 | 234 | 14.5 | 30.6 | 0.00 | 0.00 | 0.00 | 59 | 1011.0 |
| 20260502163227 | 31 | 246 | 11.3 | 32.2 | 0.00 | 0.00 | 0.00 | 61 | 1011.1 |
| 20260502162708 | 31 | 262 | 11.3 | 27.4 | 0.00 | 0.00 | 0.00 | 64 | 1011.1 |
| 20260502162129 | 30 | 234 | 12.9 | 27.4 | 0.00 | 0.00 | 0.00 | 66 | 1011.3 |
| 20260502160223 | 30 | 235 | 11.3 | 27.4 | 0.00 | 0.00 | 0.00 | 66 | 1011.4 |
| 20260502151749 | 28 | 235 | 9.7 | 24.1 | 0.00 | 0.00 | 0.00 | 69 | 1011.6 |
| 20260502150748 | 28 | 225 | 11.3 | 20.9 | 0.00 | 0.00 | 0.00 | 69 | 1011.6 |
| 20260502130740 | 25 | 216 | 6.4 | 16.1 | 0.00 | 0.00 | 0.00 | 81 | 1010.8 |
| 20260502123741 | 23 | 170 | 6.4 | 14.5 | 0.00 | 0.00 | 0.00 | 89 | 1010.7 |
| 20260502122731 | 23 | 177 | 8.0 | 16.1 | 0.00 | 0.00 | 0.00 | 93 | 1010.5 |
| 20260502121734 | 22 | 188 | 6.4 | 16.1 | 0.00 | 0.00 | 0.00 | 95 | 1010.5 |
| 20260502120730 | 22 | 189 | 3.2 | 9.7 | 0.00 | 0.00 | 0.00 | 96 | 1010.6 |
| 20260502115727 | 22 | 171 | 3.2 | 9.7 | 0.00 | 0.00 | 0.00 | 96 | 1010.6 |
| 20260502114724 | 21 | 196 | 1.6 | 4.8 | 0.00 | 0.00 | 0.00 | 96 | 1010.6 |
| 20260502113709 | 21 | 196 | 0.0 | 3.2 | 0.00 | 0.00 | 0.00 | 96 | 1010.5 |
| 20260502112700 | 21 | 196 | 1.6 | 6.4 | 0.00 | 0.00 | 0.00 | 96 | 1010.4 |
| 20260502111659 | 21 | 193 | 3.2 | 6.4 | 0.00 | 0.00 | 0.00 | 96 | 1010.4 |
| 20260502110658 | 20 | 193 | 1.6 | 4.8 | 0.00 | 0.00 | 0.00 | 95 | 1010.2 |
| 20260502105658 | 20 | 193 | 0.0 | 3.2 | 0.00 | 0.00 | 0.00 | 95 | 1010.2 |
| 20260502104644 | 20 | 193 | 0.0 | 3.2 | 0.00 | 0.00 | 0.00 | 95 | 1010.1 |
| 20260502104121 | 20 | 193 | 0.0 | 3.2 | 0.00 | 0.00 | 0.00 | 95 | 1009.8 |
| 20260502102643 | 20 | 193 | 3.2 | 8.0 | 0.00 | 0.00 | 0.00 | 95 | 1009.9 |
| 20260502101642 | 20 | 246 | 3.2 | 6.4 | 0.00 | 0.00 | 0.00 | 95 | 1010.0 |
| 20260502100642 | 20 | 252 | 1.6 | 4.8 | 0.00 | 0.00 | 0.00 | 95 | 1010.1 |
| 20260502090631 | 20 | 258 | 0.0 | 3.2 | 0.00 | 0.00 | 0.00 | 94 | 1010.6 |
| 20260502070617 | 21 | 291 | 1.6 | 4.8 | 0.00 | 0.00 | 0.00 | 92 | 1010.8 |
| 20260502070052 | 21 | 291 | 1.6 | 3.2 | 0.00 | 0.00 | 0.00 | 92 | 1010.8 |
| 20260502065102 | 21 | 292 | 0.0 | 3.2 | 0.00 | 0.00 | 0.00 | 91 | 1011.0 |
| 20260502063616 | 21 | 291 | 0.0 | 3.2 | 0.00 | 0.00 | 0.00 | 90 | 1011.0 |
| 20260502062616 | 21 | 292 | 1.6 | 4.8 | 0.00 | 0.00 | 0.00 | 90 | 1011.0 |
| 20260502062533 | 21 | 291 | 3.2 | 4.8 | 0.00 | 0.00 | 0.00 | 89 | 1011.2 |
| 20260502060615 | 21 | 292 | 1.6 | 4.8 | 0.00 | 0.00 | 0.00 | 88 | 1011.1 |
| 20260502055618 | 21 | 308 | 1.6 | 3.2 | 0.00 | 0.00 | 0.00 | 87 | 1011.2 |
| 20260502054616 | 21 | 308 | 1.6 | 3.2 | 0.00 | 0.00 | 0.00 | 86 | 1011.2 |
| 20260502054023 | 21 | 310 | 3.2 | 4.8 | 0.00 | 0.00 | 0.00 | 86 | 1011.5 |
| 20260502053650 | 21 | 308 | 3.2 | 4.8 | 0.00 | 0.00 | 0.00 | 86 | 1011.4 |
| 20260502051610 | 21 | 310 | 0.0 | 1.6 | 0.00 | 0.00 | 0.00 | 85 | 1011.6 |
| 20260502051103 | 21 | 310 | 0.0 | 1.6 | 0.00 | 0.00 | 0.00 | 85 | 1011.5 |
| 20260502045609 | 21 | 310 | 0.0 | 0.0 | 0.00 | 0.00 | 0.00 | 84 | 1011.5 |
| 20260502044611 | 21 | 310 | 0.0 | 0.0 | 0.00 | 0.00 | 0.00 | 83 | 1011.6 |
| 20260502043613 | 22 | 310 | 0.0 | 0.0 | 0.00 | 0.00 | 0.00 | 83 | 1011.6 |
| 20260502042607 | 22 | 310 | 0.0 | 0.0 | 0.00 | 0.00 | 0.00 | 82 | 1011.7 |
| 20260502041615 | 22 | 310 | 0.0 | 0.0 | 0.00 | 0.00 | 0.00 | 81 | 1011.7 |
| 20260502041047 | 22 | 310 | 0.0 | 0.0 | 0.00 | 0.00 | 0.00 | 80 | 1011.7 |
| 20260502035607 | 22 | 310 | 0.0 | 1.6 | 0.00 | 0.00 | 0.00 | 79 | 1011.8 |
| 20260502034608 | 23 | 310 | 0.0 | 1.6 | 0.00 | 0.00 | 0.00 | 78 | 1011.8 |
| 20260502033607 | 23 | 310 | 0.0 | 0.0 | 0.00 | 0.00 | 0.00 | 78 | 1011.7 |
| 20260502032606 | 23 | 310 | 0.0 | 0.0 | 0.00 | 0.00 | 0.00 | 77 | 1011.8 |
| 20260502031602 | 23 | 310 | 0.0 | 3.2 | 0.00 | 0.00 | 0.00 | 76 | 1011.7 |
| 20260502030603 | 24 | 310 | 0.0 | 3.2 | 0.00 | 0.00 | 0.00 | 74 | 1011.7 |
| 20260502030040 | 25 | 310 | 0.0 | 4.8 | 0.00 | 0.00 | 0.00 | 73 | 1011.7 |
| 20260502024553 | 25 | 310 | 3.2 | 6.4 | 0.00 | 0.00 | 0.00 | 71 | 1011.7 |
| 20260502023547 | 25 | 314 | 3.2 | 6.4 | 0.00 | 0.00 | 0.00 | 70 | 1011.7 |
| 20260502023455 | 25 | 308 | 3.2 | 8.0 | 0.00 | 0.00 | 0.00 | 69 | 1011.4 |
| 20260502021538 | 26 | 321 | 4.8 | 11.3 | 0.00 | 0.00 | 0.00 | 66 | 1011.5 |
| 20260502021009 | 26 | 289 | 3.2 | 9.7 | 0.00 | 0.00 | 0.00 | 63 | 1011.5 |
| 20260502015530 | 26 | 267 | 4.8 | 12.9 | 0.00 | 0.00 | 0.00 | 62 | 1011.3 |
| 20260502014522 | 26 | 279 | 4.8 | 11.3 | 0.00 | 0.00 | 0.00 | 61 | 1011.0 |
| 20260502013519 | 27 | 282 | 3.2 | 11.3 | 0.00 | 0.00 | 0.00 | 60 | 1010.8 |
| 20260502012520 | 27 | 296 | 4.8 | 11.3 | 0.00 | 0.00 | 0.00 | 59 | 1010.6 |
| 20260502011519 | 27 | 297 | 4.8 | 16.1 | 0.00 | 0.00 | 0.00 | 58 | 1010.7 |
| 20260502010520 | 28 | 279 | 8.0 | 16.1 | 0.00 | 0.00 | 0.00 | 56 | 1010.6 |
| 20260502005956 | 28 | 277 | 4.8 | 14.5 | 0.00 | 0.00 | 0.00 | 56 | 1010.5 |
| 20260502004517 | 28 | 285 | 4.8 | 16.1 | 0.00 | 0.00 | 0.00 | 55 | 1010.3 |
| 20260502003519 | 28 | 271 | 3.2 | 11.3 | 0.00 | 0.00 | 0.00 | 55 | 1010.2 |
| 20260502002956 | 28 | 270 | 3.2 | 8.0 | 0.00 | 0.00 | 0.00 | 54 | 1010.0 |
| 20260502001512 | 28 | 259 | 3.2 | 9.7 | 0.00 | 0.00 | 0.00 | 52 | 1009.8 |
| 20260502000511 | 29 | 263 | 4.8 | 6.4 | 0.00 | 0.00 | 0.00 | 51 | 1009.7 |
| 20260501235513 | 30 | 267 | 4.8 | 11.3 | 0.00 | 0.00 | 0.00 | 50 | 1009.6 |